Regional Weather Roundup
Issued by NWS Upton, NY

Current Version | Previous Version | Text Only | Print | Product List | Glossary On
Versions: 1 2 3 4 5 6 7 8 9 10 11 12 13 14 15 16 17 18 19 20 21 22 23 24 25 26 27 28 29 30 31 32 33 34 35 36 37 38 39 40 41 42 43 44 45 46 47 48 49
000
ASUS41 KOKX 030908
RWROKX

REGIONAL WEATHER ROUNDUP
NATIONAL WEATHER SERVICE NEW YORK NY
500 AM EDT SUN MAY 03 2015

NOTE: "FAIR" INDICATES FEW OR NO CLOUDS BELOW 12,000 FEET WITH NO
SIGNIFICANT WEATHER AND/OR OBSTRUCTIONS TO VISIBILITY.

NYZ071-072-176-178-NJZ106-104-031000-
NEW YORK CITY METRO AREA


CITY           SKY/WX    TMP DP  RH WIND       PRES   REMARKS
CENTRAL PARK   CLEAR     51  34  52 CALM      30.07S
LAGUARDIA APRT PTCLDY    51  36  56 SW6       30.05R
KENNEDY INTL   PTCLDY    47  39  74 SW6       30.06S
NEWARK/LIBERTY PTCLDY    49  37  63 CALM      30.05S
BRNX BOT. GARD   N/A     52  36  54 SW2       30.06F
TETERBORO      CLEAR     45  37  73 CALM      30.04S
$$

NYZ177-179-078>081-031000-
LONG ISLAND NEW YORK

CITY           SKY/WX    TMP DP  RH WIND       PRES   REMARKS
FARMINGDALE    CLEAR     44  39  82 CALM      30.06R
ISLIP          CLEAR     44  39  82 CALM      30.04S
SHIRLEY        CLEAR     42  38  85 SW5       30.06S
WESTHAMPTON    CLOUDY    35  32  88 CALM      30.07R
MONTAUK POINT    N/A     47  42  83 CALM      30.06S
$$

NYZ052-065-067-031000-
HUDSON VALLEY

CITY           SKY/WX    TMP DP  RH WIND       PRES   REMARKS
WHITE PLAINS   CLEAR     43  39  86 CALM      30.04R
NEWBURGH       CLEAR     45  41  87 CALM      30.04R
MONTGOMERY     CLEAR     40  38  93 CALM      30.03R
POUGHKEEPSIE   CLEAR     43  38  82 CALM      30.03R
ALBANY         PTCLDY    48  38  68 CALM      30.02R
$$

NJZ001-105-106-008-010-013-015-019>022-104-031000-
NEW JERSEY

CITY           SKY/WX    TMP DP  RH WIND       PRES   REMARKS
NEWARK/LIBERTY PTCLDY    49  37  63 CALM      30.05S
TETERBORO      CLEAR     45  37  73 CALM      30.04S
CALDWELL       CLEAR     42  38  85 CALM      30.05S
MORRISTOWN     FOG       41  37  87 CALM      30.05S VSB 3/4
SOMERVILLE     CLEAR     40  37  89 CALM      30.04S
SUSSEX         CLEAR     43  38  82 CALM      30.05S
ANDOVER          N/A     44  41  89 CALM      30.05R
TRENTON        CLOUDY    47  39  74 CALM      30.05R
MILLVILLE      MOCLDY    46  44  93 E3        30.04R
ATLANTIC CITY  CLOUDY    51  40  65 S3        30.05R
WRIGHTSTOWN    MOCLDY    43  40  90 CALM      30.03S
TOMS RIVER     CLEAR     37  34  87 CALM      30.06R
BELMAR         CLEAR     45  36  70 W3        30.05S
$$

PAZ047>061-062-071-031000-
EASTERN PENNSYLVANIA

CITY           SKY/WX    TMP DP  RH WIND       PRES   REMARKS
PHILADELPHIA   MOCLDY    51  43  74 E7        30.05S
ALLENTOWN      CLEAR     46  43  89 NE3       30.05R
SCRANTON       CLEAR     47  32  56 E6        30.05R
$$

CTZ002-004>006-009-010-012-RIZ004-006-007-MAZ004-011-015-031000-
SOUTHERN NEW ENGLAND
 IN CT

CITY           SKY/WX    TMP DP  RH WIND       PRES   REMARKS
BRADLEY INTL   PTCLDY    46  38  73 S9        30.01R
HARTFORD       CLEAR     45  36  70 S6        30.03S
DANBURY        CLEAR     39  34  82 CALM      30.05R
WTRBRY/OXFORD  NOT AVBL
BRIDGEPORT     CLEAR     47  42  83 W5        30.04S
MERIDEN        CLEAR     41  36  82 CALM      30.04R
NEW HAVEN      CLEAR     47  40  76 W5        30.04S
CHESTER        FAIR      46  37  71 W6        30.04R
GROTON         CLOUDY    45  42  89 W3        30.05R
WILLIMANTIC    CLOUDY    44  38  79 CALM      30.03S

 IN RI

CITY           SKY/WX    TMP DP  RH WIND       PRES   REMARKS
PROVIDENCE     MOCLDY    43  38  82 S5        30.04R
BLOCK ISLAND   PTCLDY    45  37  76 W6        30.05S
WESTERLY       CLOUDY    44  42  93 CALM      30.05S

 IN MA

CITY           SKY/WX    TMP DP  RH WIND       PRES   REMARKS
BOSTON         PTCLDY    46  39  76 SW6       30.01S
WORCESTER      CLOUDY    47  37  68 W10       30.00R
WESTFIELD      MOCLDY    47  38  71 SE5       30.01R
PROVINCETOWN   CLEAR     43  43 100 S7        30.05R
NANTUCKET      CLEAR     36  33  89 CALM      30.05R
$$

ANZ330-335-338-340-345-350-353-355-031000-
COASTAL MARINE OBSERVATIONS


STATION/POSITION TIME  SKY/WX   TEMP    WIND        PRES    VSBY  WAVE
                                AIR SEA DIR/SP/G                  HT/PER
                 (UTC)          (F)     (DEG/KT/KT) (MB)    (MI)  (FT/S)
NY HARB ENTRANCE 0850            49 50  260/  2/  4 1017.5          5/ 8
4S FIRE IS       0803               47                N/A           5/ 9
20S FIRE ISLAND  0850            46 46  270/  2/  2 1018.0          5/10
GREAT SOUTH BAY  0830            51 56  260/ 10/ 12   N/A
23SW MTP         0850            44 44  260/  4/  6 1017.8          5/ 8
HUDSON CANYON    NOT AVBL
EXECUTION ROCKS  NOT AVBL
WESTERN LI SOUND NOT AVBL
CENTRAL LI SOUND NOT AVBL
EASTERN LI SOUND 0800            45     250/  6/  6   N/A
ROBBINS REEF     0800            50     230/  4/  5 1016.5
$$


>>>>>>>>>>>>>>>>>>>>>>>>>>>> KEY <<<<<<<<<<<<<<<<<<<<<<<<<<<
>                                                          <
>     SKY/WX - SKY CONDITION/PRESENT WEATHER               <
>     TMP    - TEMPERATURE IN FAHRENHEIT                   <
>     DP     - DEWPOINT IN FAHRENHEIT                      <
>     RH     - RELATIVE HUMIDITY IN PERCENT                <
>     WIND   - DIRECTION AND SPEED IN MPH                  <
>     PRES   - MEAN SEA LEVEL PRESSURE IN INCHES OF HG     <
>     WCI    - WIND CHILL INDEX                            <
>     VSB    - VISIBILITY IN MILES                         <
>     HX     - HEAT INDEX                                  <
>     TC     - TEMPERATURE IN CELSIUS                      <
>     VRB    - VARIABLE WIND DIRECTION                     <
>                                                          <
>>>>>>>>>>>>>>>>>>>>>>>>>>>> KEY <<<<<<<<<<<<<<<<<<<<<<<<<<<




USA.gov is the U.S. government's official web portal to all federal, state and local government web resources and services.